Weather History for KORD - February, 2014

Change the Weather History Date:

Thursday, February 20, 2014

  Actual Average Record
Temperature  
Mean Temperature 42 °F 29 °F  
Max Temperature 49 °F 37 °F 64 °F (1930)
Min Temperature 34 °F 22 °F -9 °F (1896)
Degree Days  
Heating Degree Days 23 36  
Month to date heating degree days 961 770  
Since 1 July heating degree days 5048 4460  
Cooling Degree Days 0 0  
Month to date cooling degree days 0 0  
Year to date cooling degree days 0 0  
Moisture  
Dew Point 33 °F    
Average Humidity 84    
Maximum Humidity 100    
Minimum Humidity 67    
Precipitation  
Precipitation 1.16 in 0.07 in 1.16 in (2014)
Month to date precipitation 2.48 1.18  
Year to date precipitation 5.30 2.91  
Snow  
Snow 0.10 in 0.30 in 2.80 in (1989)
Month to date snowfall 19.2 6.8  
Since 1 July snowfall 68.0 27.5  
Snow Depth 6.00 in    
Sea Level Pressure  
Sea Level Pressure 29.49 in    
Wind  
Wind Speed 14 mph (East)    
Max Wind Speed 39 mph    
Max Gust Speed 49 mph    
Visibility 4 miles    
Events Fog , Rain , Thunderstorm    
T = Trace of Precipitation, MM = Missing Value Source: NWS Daily Summary

Daily Weather History Graph

Daily Weather History Graph

Search for Another Location

Airport or City:

Trip Planner

Search our weather history database for the weather conditions in past years. The results will help you decide how hot, cold, wet, or windy it might be!

Date:

Astronomy

Feb. 20, 2014 Rise Set
Actual Time 6:40 AM CST 5:30 PM CST
Civil Twilight 6:12 AM CST 5:59 PM CST
Nautical Twilight 5:39 AM CST 6:31 PM CST
Astronomical Twilight 5:07 AM CST 7:04 PM CST
Moon 11:31 PM CST (2/20) 9:17 AM CST (2/20)
Length of Visible Light 11h 47m
Length of Day
10h 50m
Waning Gibbous, 70% of the Moon is Illuminated
Feb 20
Waning Gibbous
Feb 22
Last Quarter
Mar 1
New
Mar 8
First Quarter
Mar 16
Full

Hourly Weather History & Observations

Time (CST) Temp. Windchill Dew Point Humidity Pressure Visibility Wind Dir Wind Speed Gust Speed Precip Events Conditions
12:51 AM 34.0 °F 29.8 °F 28.0 °F 79% 29.92 in 9.0 mi South 4.6 mph - N/A   Overcast
1:51 AM 35.1 °F 27.9 °F 28.0 °F 76% 29.84 in 10.0 mi East 9.2 mph - N/A   Overcast
2:51 AM 36.0 °F 29.6 °F 28.0 °F 73% 29.84 in 10.0 mi ESE 8.1 mph - N/A   Overcast
3:51 AM 37.0 °F 31.0 °F 28.0 °F 70% 29.79 in 9.0 mi NE 8.1 mph - N/A   Overcast
4:28 AM 36.0 °F 32.1 °F 28.0 °F 73% 29.78 in 6.0 mi NNE 4.6 mph - 0.00 in Rain , Thunderstorm Light Thunderstorms and Rain
4:39 AM 35.1 °F 31.0 °F 28.9 °F 78% 29.77 in 4.0 mi NE 4.6 mph - 0.03 in Rain , Thunderstorm Thunderstorms and Rain
4:51 AM 35.1 °F 28.6 °F 28.9 °F 78% 29.78 in 3.0 mi NE 8.1 mph - 0.08 in Rain Rain
5:00 AM 35.1 °F 27.9 °F 28.9 °F 78% 29.73 in 3.0 mi NE 9.2 mph - 0.03 in Rain , Thunderstorm Thunderstorms and Rain
5:05 AM 34.0 °F 28.0 °F 28.9 °F 82% 29.74 in 2.5 mi NNE 6.9 mph - 0.05 in Rain , Thunderstorm Thunderstorms and Rain
5:10 AM 34.0 °F 31.0 °F 30.0 °F 85% 29.75 in 2.5 mi North 3.5 mph - 0.07 in Rain , Thunderstorm Thunderstorms and Ice Pellets
5:18 AM 34.0 °F 29.8 °F 30.0 °F 85% 29.76 in 3.0 mi North 4.6 mph - 0.08 in Rain Ice Pellets
5:21 AM 34.0 °F 29.8 °F 30.0 °F 85% 29.77 in 2.5 mi NNW 4.6 mph - 0.09 in Rain Ice Pellets
5:38 AM 34.0 °F 31.0 °F 30.0 °F 85% 29.76 in 2.5 mi NE 3.5 mph - 0.13 in Rain Light Ice Pellets
5:51 AM 34.0 °F 26.6 °F 28.9 °F 82% 29.76 in 2.0 mi NE 9.2 mph - 0.19 in Rain Light Rain
6:23 AM 34.0 °F 24.6 °F 30.0 °F 85% 29.68 in 2.5 mi ENE 13.8 mph - 0.11 in Rain Light Rain
6:51 AM 35.1 °F 25.2 °F 30.0 °F 82% 29.70 in 2.5 mi East 16.1 mph - 0.13 in Rain Light Rain
7:05 AM 35.1 °F 26.9 °F 30.9 °F 85% 29.67 in 2.0 mi East 11.5 mph - 0.01 in Rain Light Rain
7:14 AM 35.1 °F 27.4 °F 30.9 °F 85% 29.66 in 1.8 mi East 10.4 mph - 0.01 in Rain Light Rain
7:51 AM 36.0 °F 28.0 °F 30.9 °F 82% 29.67 in 1.8 mi East 11.5 mph - 0.06 in Rain Light Rain
8:51 AM 36.0 °F 28.5 °F 32.0 °F 86% 29.65 in 1.5 mi East 10.4 mph - 0.02 in   Overcast
9:51 AM 36.0 °F 29.0 °F 32.0 °F 86% 29.60 in 1.5 mi ENE 9.2 mph - N/A   Overcast
10:29 AM 37.0 °F 31.0 °F 33.1 °F 86% 29.55 in 2.0 mi ENE 8.1 mph - N/A   Overcast
10:51 AM 37.0 °F 31.0 °F 33.1 °F 86% 29.55 in 2.0 mi ENE 8.1 mph - N/A   Overcast
11:03 AM 37.0 °F 32.4 °F 33.1 °F 86% 29.54 in 2.0 mi ENE 5.8 mph - N/A   Overcast
11:19 AM 36.0 °F 31.1 °F 32.0 °F 86% 29.57 in 1.5 mi South 5.8 mph - 0.02 in Rain Light Rain
11:51 AM 37.9 °F 35.5 °F 34.0 °F 86% 29.53 in 1.8 mi ESE 3.5 mph - 0.12 in Rain Light Rain
12:24 PM 37.0 °F 32.4 °F 33.1 °F 86% 29.53 in 1.0 mi North 5.8 mph - 0.01 in Rain , Thunderstorm Thunderstorms and Rain
12:49 PM 37.4 °F 32.1 °F 35.6 °F 93% 29.48 in 1.2 mi ENE 6.9 mph - 0.21 in Rain Rain
12:51 PM 37.0 °F 31.0 °F 36.0 °F 96% 29.49 in 1.2 mi ENE 8.1 mph - 0.21 in Rain Light Rain
1:51 PM 37.9 °F 32.7 °F 37.9 °F 100% 29.42 in 1.0 mi East 6.9 mph - 0.07 in Rain Light Rain
1:59 PM 37.9 °F 32.1 °F 37.9 °F 100% 29.40 in 0.8 mi East 8.1 mph - 0.00 in Rain Light Rain
2:43 PM 37.9 °F 29.2 °F 37.0 °F 97% 29.37 in 1.0 mi East 15.0 mph - 0.03 in Rain Light Rain
2:51 PM 37.9 °F 28.9 °F 37.0 °F 97% 29.38 in 1.0 mi ESE 16.1 mph - 0.03 in Rain Light Rain
2:56 PM 39.0 °F 31.0 °F 35.1 °F 86% 29.36 in 1.5 mi ESE 13.8 mph - 0.01 in   Overcast
3:08 PM 37.9 °F 29.6 °F 35.1 °F 89% 29.35 in 2.0 mi East 13.8 mph - 0.01 in   Overcast
3:39 PM 37.0 °F 29.3 °F 34.0 °F 89% 29.32 in 1.5 mi ESE 11.5 mph - 0.01 in   Overcast
3:51 PM 37.9 °F 30.0 °F 34.0 °F 86% 29.33 in 1.0 mi ESE 12.7 mph - 0.01 in   Overcast
3:59 PM 37.9 °F 30.0 °F 34.0 °F 86% 29.31 in 0.5 mi East 12.7 mph - N/A Fog Fog
4:11 PM 37.0 °F 28.5 °F 35.1 °F 93% 29.29 in 0.2 mi East 13.8 mph - N/A Fog Fog
4:51 PM 37.0 °F 28.9 °F 37.0 °F 100% 29.27 in 0.2 mi East 12.7 mph - N/A Fog Fog
5:28 PM 37.9 °F 28.2 °F 37.9 °F 100% 29.22 in 0.2 mi SE 18.4 mph - 0.06 in Fog , Rain Light Rain
5:51 PM 39.0 °F 31.4 °F 39.0 °F 100% 29.21 in 0.2 mi SSE 12.7 mph - 0.09 in Fog , Rain Heavy Rain
5:57 PM 42.1 °F 33.1 °F 42.1 °F 100% 29.21 in 1.5 mi SSE 20.7 mph - 0.14 in Rain Rain
6:09 PM 44.1 °F 37.7 °F 39.9 °F 85% 29.20 in 2.0 mi South 12.7 mph 21.9 mph 0.15 in Rain Light Rain
6:13 PM 45.0 °F 38.9 °F 42.1 °F 90% 29.21 in 2.0 mi South 12.7 mph - 0.15 in Rain Light Rain
6:18 PM 46.0 °F 40.6 °F 42.1 °F 86% 29.20 in 3.0 mi South 11.5 mph - 0.15 in Rain Light Rain
6:32 PM 48.0 °F - 44.1 °F 86% 29.21 in 5.0 mi South 18.4 mph 25.3 mph 0.15 in   Overcast
6:51 PM 48.9 °F - 45.0 °F 86% 29.23 in 10.0 mi SSW 23.0 mph 32.2 mph 0.15 in   Overcast
7:09 PM 46.9 °F - 42.1 °F 83% 29.23 in 10.0 mi SW 31.1 mph 40.3 mph N/A   Mostly Cloudy
7:18 PM 46.9 °F - 39.9 °F 77% 29.24 in 10.0 mi SW 27.6 mph 42.6 mph N/A   Mostly Cloudy
7:51 PM 42.1 °F 30.8 °F 32.0 °F 67% 29.29 in 10.0 mi SW 33.4 mph 46.0 mph N/A   Overcast
8:16 PM 39.0 °F 26.2 °F 30.9 °F 73% 29.29 in 10.0 mi SW 35.7 mph 48.3 mph N/A   Overcast
8:51 PM 37.9 °F 26.1 °F 28.9 °F 70% 29.33 in 10.0 mi WSW 27.6 mph 43.7 mph N/A   Overcast
9:51 PM 37.0 °F 26.4 °F 28.0 °F 70% 29.34 in 10.0 mi WSW 20.7 mph 36.8 mph N/A   Overcast
10:51 PM 37.0 °F 25.4 °F 28.0 °F 70% 29.35 in 10.0 mi WSW 25.3 mph 35.7 mph N/A   Overcast
11:51 PM 37.0 °F 24.5 °F 27.0 °F 67% 29.35 in 10.0 mi WSW 29.9 mph 41.4 mph N/A   Overcast